| time (UTC) | temp F | wind direction | speed MPH | gust MPH | rain 1hr in | rain 24hr in | rain mn in | humidity % | barometer mb |
| 20260504042101 | 49 | 222 | 3.0 | 5.0 | 0.00 | 0.00 | 0.00 | 58 | 1028.4 |
| 20260504041556 | 49 | 278 | 3.0 | 3.0 | 0.00 | 0.00 | 0.00 | 58 | 1028.5 |
| 20260504041053 | 49 | 295 | 3.0 | 3.0 | 0.00 | 0.00 | 0.00 | 58 | 1028.6 |
| 20260504040550 | 49 | 214 | 2.0 | 3.0 | 0.00 | 0.00 | 0.00 | 58 | 1028.7 |
| 20260504040047 | 49 | 252 | 2.0 | 3.0 | 0.00 | 0.00 | 0.00 | 58 | 1028.7 |
| 20260504035544 | 49 | 290 | 3.0 | 3.0 | 0.00 | 0.00 | 0.00 | 57 | 1028.5 |
| 20260504035040 | 49 | 248 | 3.0 | 3.0 | 0.00 | 0.00 | 0.00 | 57 | 1028.6 |
| 20260504034538 | 49 | 269 | 3.0 | 3.0 | 0.00 | 0.00 | 0.00 | 57 | 1028.7 |
| 20260504034035 | 49 | 262 | 2.0 | 2.0 | 0.00 | 0.00 | 0.00 | 57 | 1028.3 |
| 20260504033533 | 49 | 218 | 2.0 | 2.0 | 0.00 | 0.00 | 0.00 | 57 | 1028.7 |
| 20260504033030 | 50 | 256 | 1.0 | 2.0 | 0.00 | 0.00 | 0.00 | 57 | 1028.7 |
| 20260504032527 | 49 | 276 | 2.0 | 2.0 | 0.00 | 0.00 | 0.00 | 57 | 1028.5 |
| 20260504032024 | 50 | 267 | 3.0 | 3.0 | 0.00 | 0.00 | 0.00 | 57 | 1028.8 |
| 20260504031521 | 50 | 269 | 2.0 | 2.0 | 0.00 | 0.00 | 0.00 | 57 | 1028.5 |
| 20260504031016 | 50 | 260 | 2.0 | 2.0 | 0.00 | 0.00 | 0.00 | 56 | 1028.7 |
| 20260504030514 | 50 | 258 | 2.0 | 3.0 | 0.00 | 0.00 | 0.00 | 55 | 1028.6 |
| 20260504030010 | 50 | 256 | 1.0 | 2.0 | 0.00 | 0.00 | 0.00 | 55 | 1028.8 |
| 20260504025507 | 50 | 272 | 2.0 | 2.0 | 0.00 | 0.00 | 0.00 | 55 | 1028.9 |
| 20260504025004 | 51 | 237 | 3.0 | 3.0 | 0.00 | 0.00 | 0.00 | 55 | 1028.6 |
| 20260504024502 | 51 | 271 | 5.0 | 6.0 | 0.00 | 0.00 | 0.00 | 54 | 1029.0 |
| 20260504023958 | 51 | 276 | 4.0 | 6.0 | 0.00 | 0.00 | 0.00 | 54 | 1028.9 |
| 20260504023455 | 51 | 279 | 2.0 | 2.0 | 0.00 | 0.00 | 0.00 | 53 | 1028.8 |
| 20260504022950 | 51 | 245 | 3.0 | 3.0 | 0.00 | 0.00 | 0.00 | 54 | 1028.9 |
| 20260504022446 | 51 | 248 | 2.0 | 2.0 | 0.00 | 0.00 | 0.00 | 54 | 1028.7 |
| 20260504021943 | 52 | 292 | 5.0 | 7.0 | 0.00 | 0.00 | 0.00 | 53 | 1029.1 |
| 20260504021441 | 51 | 339 | 4.0 | 6.0 | 0.00 | 0.00 | 0.00 | 52 | 1029.0 |
| 20260504020938 | 52 | 294 | 1.0 | 2.0 | 0.00 | 0.00 | 0.00 | 52 | 1028.9 |
| 20260504020434 | 52 | 237 | 4.0 | 6.0 | 0.00 | 0.00 | 0.00 | 51 | 1029.2 |
| 20260504015931 | 52 | 288 | 5.0 | 6.0 | 0.00 | 0.00 | 0.00 | 50 | 1029.0 |
| 20260504015427 | 52 | 273 | 8.0 | 9.0 | 0.00 | 0.00 | 0.00 | 51 | 1029.0 |
| 20260504014923 | 52 | 294 | 6.0 | 7.0 | 0.00 | 0.00 | 0.00 | 51 | 1029.1 |
| 20260504014419 | 51 | 270 | 4.0 | 6.0 | 0.00 | 0.00 | 0.00 | 52 | 1028.9 |
| 20260504013916 | 52 | 280 | 6.0 | 6.0 | 0.00 | 0.00 | 0.00 | 51 | 1028.8 |
| 20260504013415 | 52 | 302 | 5.0 | 6.0 | 0.00 | 0.00 | 0.00 | 51 | 1028.8 |
| 20260504012910 | 52 | 272 | 3.0 | 3.0 | 0.00 | 0.00 | 0.00 | 51 | 1028.9 |
| 20260504012409 | 52 | 289 | 6.0 | 9.0 | 0.00 | 0.00 | 0.00 | 51 | 1029.0 |
| 20260504011906 | 52 | 250 | 4.0 | 6.0 | 0.00 | 0.00 | 0.00 | 51 | 1028.9 |
| 20260504011403 | 52 | 237 | 5.0 | 7.0 | 0.00 | 0.00 | 0.00 | 52 | 1028.8 |
| 20260504010858 | 52 | 255 | 3.0 | 3.0 | 0.00 | 0.00 | 0.00 | 51 | 1028.8 |
| 20260504010355 | 52 | 219 | 4.0 | 5.0 | 0.00 | 0.00 | 0.00 | 51 | 1029.0 |
| 20260504005851 | 52 | 288 | 4.0 | 5.0 | 0.00 | 0.00 | 0.00 | 50 | 1029.0 |
| 20260504005348 | 52 | 311 | 5.0 | 6.0 | 0.00 | 0.00 | 0.00 | 50 | 1029.2 |
| 20260504004845 | 52 | 241 | 6.0 | 11.0 | 0.00 | 0.00 | 0.00 | 49 | 1029.0 |
| 20260504004343 | 52 | 258 | 5.0 | 7.0 | 0.00 | 0.00 | 0.00 | 48 | 1028.7 |
| 20260504003839 | 52 | 270 | 8.0 | 9.0 | 0.00 | 0.00 | 0.00 | 47 | 1029.1 |
| 20260504003336 | 52 | 283 | 6.0 | 7.0 | 0.00 | 0.00 | 0.00 | 47 | 1028.9 |
| 20260504002833 | 52 | 301 | 11.0 | 13.0 | 0.00 | 0.00 | 0.00 | 46 | 1029.0 |
| 20260504002330 | 52 | 270 | 6.0 | 8.0 | 0.00 | 0.00 | 0.00 | 47 | 1028.9 |
| 20260504001828 | 52 | 289 | 8.0 | 11.0 | 0.00 | 0.00 | 0.00 | 48 | 1028.5 |
| 20260504001325 | 52 | 4 | 5.0 | 7.0 | 0.00 | 0.00 | 0.00 | 48 | 1028.5 |
| 20260504000821 | 52 | 280 | 11.0 | 13.0 | 0.00 | 0.00 | 0.00 | 46 | 1028.7 |
| 20260504000318 | 52 | 281 | 9.0 | 11.0 | 0.00 | 0.00 | 0.00 | 47 | 1028.8 |
| 20260503235816 | 53 | 267 | 11.0 | 17.0 | 0.00 | 0.00 | 0.00 | 45 | 1029.0 |
| 20260503235314 | 53 | 283 | 13.0 | 18.0 | 0.00 | 0.00 | 0.00 | 44 | 1028.6 |
| 20260503234811 | 53 | 271 | 7.0 | 9.0 | 0.00 | 0.00 | 0.00 | 44 | 1028.4 |
| 20260503234308 | 53 | 267 | 5.0 | 6.0 | 0.00 | 0.00 | 0.00 | 44 | 1028.6 |
| 20260503233806 | 53 | 291 | 6.0 | 7.0 | 0.00 | 0.00 | 0.00 | 44 | 1028.7 |
| 20260503233301 | 53 | 257 | 11.0 | 17.0 | 0.00 | 0.00 | 0.00 | 42 | 1028.7 |
| 20260503232759 | 53 | 297 | 5.0 | 7.0 | 0.00 | 0.00 | 0.00 | 43 | 1028.4 |
| 20260503232256 | 54 | 303 | 7.0 | 8.0 | 0.00 | 0.00 | 0.00 | 43 | 1028.5 |
| 20260503231754 | 54 | 256 | 7.0 | 9.0 | 0.00 | 0.00 | 0.00 | 43 | 1028.5 |
| 20260503231251 | 54 | 275 | 9.0 | 11.0 | 0.00 | 0.00 | 0.00 | 42 | 1028.5 |
| 20260503230746 | 54 | 305 | 11.0 | 14.0 | 0.00 | 0.00 | 0.00 | 42 | 1028.4 |
| 20260503230244 | 54 | 129 | 3.0 | 5.0 | 0.00 | 0.00 | 0.00 | 43 | 1028.2 |
| 20260503225741 | 54 | 258 | 7.0 | 10.0 | 0.00 | 0.00 | 0.00 | 43 | 1028.4 |
| 20260503225241 | 54 | 44 | 6.0 | 9.0 | 0.00 | 0.00 | 0.00 | 42 | 1028.2 |
| 20260503224738 | 54 | 291 | 7.0 | 16.0 | 0.00 | 0.00 | 0.00 | 42 | 1028.2 |
| 20260503224236 | 54 | 256 | 7.0 | 8.0 | 0.00 | 0.00 | 0.00 | 41 | 1028.3 |
| 20260503223734 | 54 | 266 | 10.0 | 14.0 | 0.00 | 0.00 | 0.00 | 42 | 1028.1 |
| 20260503223231 | 54 | 306 | 7.0 | 10.0 | 0.00 | 0.00 | 0.00 | 40 | 1028.4 |
| 20260503222727 | 54 | 276 | 10.0 | 16.0 | 0.00 | 0.00 | 0.00 | 41 | 1028.3 |
| 20260503222225 | 54 | 245 | 15.0 | 17.0 | 0.00 | 0.00 | 0.00 | 41 | 1028.6 |
| 20260503221723 | 55 | 284 | 9.0 | 10.0 | 0.00 | 0.00 | 0.00 | 41 | 1028.1 |
| 20260503221221 | 55 | 281 | 4.0 | 6.0 | 0.00 | 0.00 | 0.00 | 42 | 1028.1 |
| 20260503220717 | 55 | 284 | 9.0 | 11.0 | 0.00 | 0.00 | 0.00 | 41 | 1028.3 |
| 20260503220214 | 55 | 272 | 4.0 | 6.0 | 0.00 | 0.00 | 0.00 | 43 | 1028.3 |
| 20260503215711 | 55 | 269 | 7.0 | 8.0 | 0.00 | 0.00 | 0.00 | 42 | 1027.8 |
| 20260503215208 | 55 | 270 | 8.0 | 11.0 | 0.00 | 0.00 | 0.00 | 42 | 1028.2 |
| 20260503214706 | 55 | 294 | 8.0 | 11.0 | 0.00 | 0.00 | 0.00 | 42 | 1028.1 |
| 20260503214201 | 55 | 271 | 7.0 | 8.0 | 0.00 | 0.00 | 0.00 | 41 | 1028.2 |
| 20260503213655 | 56 | 280 | 5.0 | 9.0 | 0.00 | 0.00 | 0.00 | 42 | 1028.1 |
| 20260503213152 | 55 | 216 | 4.0 | 5.0 | 0.00 | 0.00 | 0.00 | 42 | 1027.8 |
| 20260503212649 | 56 | 289 | 7.0 | 9.0 | 0.00 | 0.00 | 0.00 | 44 | 1028.1 |
| 20260503212146 | 55 | 282 | 3.0 | 5.0 | 0.00 | 0.00 | 0.00 | 45 | 1027.8 |
| 20260503211644 | 54 | 303 | 5.0 | 7.0 | 0.00 | 0.00 | 0.00 | 46 | 1028.1 |
| 20260503211139 | 53 | 281 | 5.0 | 6.0 | 0.00 | 0.00 | 0.00 | 47 | 1028.0 |
| 20260503210636 | 53 | 241 | 5.0 | 6.0 | 0.00 | 0.00 | 0.00 | 46 | 1028.1 |
| 20260503210133 | 53 | 323 | 3.0 | 3.0 | 0.00 | 0.00 | 0.00 | 49 | 1027.7 |
| 20260503205628 | 53 | 281 | 3.0 | 3.0 | 0.00 | 0.00 | 0.00 | 47 | 1027.8 |
| 20260503205125 | 54 | 337 | 6.0 | 7.0 | 0.00 | 0.00 | 0.00 | 45 | 1028.2 |
| 20260503204621 | 53 | 295 | 4.0 | 5.0 | 0.00 | 0.00 | 0.00 | 46 | 1028.3 |
| 20260503204119 | 54 | 279 | 5.0 | 6.0 | 0.00 | 0.00 | 0.00 | 47 | 1028.1 |
| 20260503203616 | 54 | 274 | 6.0 | 7.0 | 0.00 | 0.00 | 0.00 | 45 | 1028.2 |
| 20260503203114 | 54 | 8 | 2.0 | 3.0 | 0.00 | 0.00 | 0.00 | 45 | 1028.4 |
| 20260503202611 | 53 | 249 | 5.0 | 6.0 | 0.00 | 0.00 | 0.00 | 47 | 1028.4 |
| 20260503202109 | 53 | 293 | 7.0 | 10.0 | 0.00 | 0.00 | 0.00 | 45 | 1028.4 |
| 20260503201607 | 53 | 301 | 3.0 | 3.0 | 0.00 | 0.00 | 0.00 | 47 | 1028.4 |
| 20260503201104 | 53 | 281 | 7.0 | 9.0 | 0.00 | 0.00 | 0.00 | 47 | 1028.5 |
| 20260503200600 | 53 | 255 | 7.0 | 8.0 | 0.00 | 0.00 | 0.00 | 46 | 1028.8 |
| 20260503200056 | 53 | 250 | 5.0 | 7.0 | 0.00 | 0.00 | 0.00 | 47 | 1028.8 |
| 20260503195554 | 53 | 358 | 4.0 | 7.0 | 0.00 | 0.00 | 0.00 | 47 | 1028.7 |
| 20260503195050 | 53 | 293 | 6.0 | 7.0 | 0.00 | 0.00 | 0.00 | 47 | 1028.7 |
| 20260503194547 | 53 | 278 | 7.0 | 9.0 | 0.00 | 0.00 | 0.00 | 47 | 1029.0 |
| 20260503194046 | 53 | 48 | 1.0 | 2.0 | 0.00 | 0.00 | 0.00 | 52 | 1029.1 |
| 20260503193539 | 53 | 7 | 4.0 | 5.0 | 0.00 | 0.00 | 0.00 | 49 | 1029.0 |
| 20260503193038 | 53 | 239 | 5.0 | 6.0 | 0.00 | 0.00 | 0.00 | 47 | 1029.1 |
| 20260503192535 | 53 | 241 | 4.0 | 5.0 | 0.00 | 0.00 | 0.00 | 49 | 1029.2 |
| 20260503192031 | 52 | 320 | 6.0 | 7.0 | 0.00 | 0.00 | 0.00 | 48 | 1029.3 |
| 20260503191528 | 53 | 298 | 8.0 | 10.0 | 0.00 | 0.00 | 0.00 | 47 | 1029.5 |
| 20260503191025 | 52 | 16 | 3.0 | 5.0 | 0.00 | 0.00 | 0.00 | 47 | 1029.3 |
| 20260503190522 | 52 | 264 | 3.0 | 3.0 | 0.00 | 0.00 | 0.00 | 51 | 1029.5 |
| 20260503190019 | 53 | 259 | 5.0 | 7.0 | 0.00 | 0.00 | 0.00 | 47 | 1029.9 |
| 20260503185515 | 52 | 241 | 4.0 | 6.0 | 0.00 | 0.00 | 0.00 | 50 | 1029.7 |
| 20260503185015 | 51 | 343 | 3.0 | 3.0 | 0.00 | 0.00 | 0.00 | 51 | 1029.9 |
| 20260503184512 | 51 | 259 | 11.0 | 15.0 | 0.00 | 0.00 | 0.00 | 48 | 1029.7 |
| 20260503184008 | 51 | 304 | 2.0 | 3.0 | 0.00 | 0.00 | 0.00 | 50 | 1030.1 |
| 20260503183504 | 51 | 245 | 5.0 | 7.0 | 0.00 | 0.00 | 0.00 | 50 | 1030.1 |
| 20260503183002 | 49 | 273 | 6.0 | 7.0 | 0.00 | 0.00 | 0.00 | 50 | 1030.2 |
| 20260503182500 | 49 | 280 | 6.0 | 13.0 | 0.00 | 0.00 | 0.00 | 49 | 1030.4 |
| 20260503181957 | 50 | 289 | 10.0 | 13.0 | 0.00 | 0.00 | 0.00 | 48 | 1030.4 |
| 20260503181454 | 51 | 273 | 12.0 | 15.0 | 0.00 | 0.00 | 0.00 | 47 | 1030.2 |
| 20260503180950 | 51 | 219 | 3.0 | 6.0 | 0.00 | 0.00 | 0.00 | 48 | 1030.5 |
| 20260503180449 | 50 | 353 | 4.0 | 6.0 | 0.00 | 0.00 | 0.00 | 47 | 1030.3 |
| 20260503175945 | 50 | 297 | 7.0 | 8.0 | 0.00 | 0.00 | 0.00 | 47 | 1030.4 |
| 20260503175443 | 51 | 300 | 9.0 | 11.0 | 0.00 | 0.00 | 0.00 | 46 | 1030.2 |
| 20260503174939 | 52 | 347 | 3.0 | 3.0 | 0.00 | 0.00 | 0.00 | 46 | 1030.4 |
| 20260503174437 | 51 | 287 | 6.0 | 8.0 | 0.00 | 0.00 | 0.00 | 46 | 1030.2 |
| 20260503173932 | 52 | 307 | 4.0 | 5.0 | 0.00 | 0.00 | 0.00 | 47 | 1030.5 |
| 20260503173428 | 51 | 257 | 10.0 | 11.0 | 0.00 | 0.00 | 0.00 | 47 | 1030.3 |
| 20260503172926 | 51 | 227 | 9.0 | 10.0 | 0.00 | 0.00 | 0.00 | 47 | 1030.2 |
| 20260503172423 | 50 | 263 | 4.0 | 5.0 | 0.00 | 0.00 | 0.00 | 49 | 1030.5 |
| 20260503171919 | 49 | 278 | 7.0 | 8.0 | 0.00 | 0.00 | 0.00 | 49 | 1030.6 |
| 20260503171416 | 50 | 321 | 3.0 | 3.0 | 0.00 | 0.00 | 0.00 | 50 | 1030.5 |
| 20260503170914 | 50 | 298 | 4.0 | 5.0 | 0.00 | 0.00 | 0.00 | 48 | 1030.5 |
| 20260503170409 | 49 | 303 | 7.0 | 10.0 | 0.00 | 0.00 | 0.00 | 50 | 1030.5 |
| 20260503150802 | 46 | 1 | 3.0 | 5.0 | 0.00 | 0.00 | 0.00 | 55 | 1031.7 |
| 20260503150258 | 45 | 200 | 4.0 | 6.0 | 0.00 | 0.00 | 0.00 | 56 | 1031.8 |
| 20260503140222 | 44 | 293 | 5.0 | 5.0 | 0.00 | 0.00 | 0.00 | 57 | 1032.2 |
| 20260503131152 | 42 | 251 | 3.0 | 3.0 | 0.00 | 0.00 | 0.00 | 67 | 1032.2 |
| 20260503130649 | 41 | 265 | 3.0 | 5.0 | 0.00 | 0.00 | 0.00 | 66 | 1032.3 |
| 20260503130147 | 41 | 291 | 5.0 | 7.0 | 0.00 | 0.00 | 0.00 | 66 | 1032.6 |
| 20260503120112 | 35 | 324 | 1.0 | 2.0 | 0.00 | 0.00 | 0.00 | 78 | 1032.3 |
| 20260503110539 | 34 | 273 | 3.0 | 5.0 | 0.00 | 0.00 | 0.00 | 82 | 1032.2 |
| 20260503090426 | 33 | 300 | 1.0 | 1.0 | 0.00 | 0.00 | 0.00 | 87 | 1031.7 |
| 20260503081353 | 34 | 309 | 1.0 | 2.0 | 0.00 | 0.00 | 0.00 | 87 | 1032.0 |
| 20260503080849 | 34 | 314 | 2.0 | 2.0 | 0.00 | 0.00 | 0.00 | 87 | 1032.1 |
| 20260503080347 | 34 | 327 | 1.0 | 1.0 | 0.00 | 0.00 | 0.00 | 87 | 1031.7 |
| 20260503072823 | 35 | 288 | 2.0 | 2.0 | 0.00 | 0.00 | 0.00 | 85 | 1031.7 |
| 20260503072320 | 35 | 337 | 2.0 | 2.0 | 0.00 | 0.00 | 0.00 | 85 | 1031.8 |
| 20260503071816 | 35 | 289 | 0.0 | 0.0 | 0.00 | 0.00 | 0.00 | 84 | 1032.0 |
| 20260503071314 | 35 | 272 | 4.0 | 7.0 | 0.00 | 0.00 | 0.00 | 84 | 1031.8 |
| 20260503070810 | 35 | 327 | 2.0 | 2.0 | 0.00 | 0.00 | 0.00 | 84 | 1031.7 |
| 20260503070308 | 35 | 278 | 4.0 | 5.0 | 0.00 | 0.00 | 0.00 | 84 | 1031.8 |
| 20260503060227 | 36 | 277 | 5.0 | 7.0 | 0.00 | 0.00 | 0.00 | 82 | 1031.9 |
| 20260503054714 | 36 | 274 | 6.0 | 9.0 | 0.00 | 0.00 | 0.00 | 82 | 1031.9 |
| 20260503054211 | 36 | 319 | 4.0 | 6.0 | 0.00 | 0.00 | 0.00 | 82 | 1032.0 |
| 20260503053709 | 36 | 291 | 3.0 | 5.0 | 0.00 | 0.00 | 0.00 | 83 | 1032.1 |
| 20260503053207 | 35 | 84 | 1.0 | 1.0 | 0.00 | 0.00 | 0.00 | 83 | 1032.3 |
| 20260503052703 | 35 | 252 | 1.0 | 2.0 | 0.00 | 0.00 | 0.00 | 84 | 1032.0 |
| 20260503052200 | 35 | 102 | 1.0 | 2.0 | 0.00 | 0.00 | 0.00 | 84 | 1032.2 |
| 20260503051655 | 36 | 192 | 2.0 | 2.0 | 0.00 | 0.00 | 0.00 | 84 | 1032.3 |
| 20260503051153 | 36 | 147 | 2.0 | 2.0 | 0.00 | 0.00 | 0.00 | 83 | 1032.4 |
| 20260503050649 | 36 | 125 | 0.0 | 1.0 | 0.00 | 0.00 | 0.00 | 82 | 1032.2 |
| 20260503050146 | 36 | 290 | 1.0 | 1.0 | 0.00 | 0.00 | 0.00 | 82 | 1032.6 |
| 20260503045643 | 36 | 253 | 3.0 | 3.0 | 0.00 | 0.00 | 0.00 | 82 | 1032.6 |
| 20260503045141 | 36 | 199 | 2.0 | 2.0 | 0.00 | 0.00 | 0.00 | 82 | 1032.7 |
| 20260503044637 | 36 | 245 | 3.0 | 3.0 | 0.00 | 0.00 | 0.00 | 82 | 1032.7 |
| 20260503044135 | 36 | 279 | 3.0 | 3.0 | 0.00 | 0.00 | 0.00 | 81 | 1032.6 |
| 20260503043631 | 36 | 232 | 1.0 | 2.0 | 0.00 | 0.00 | 0.00 | 81 | 1032.7 |
| 20260503043128 | 36 | 290 | 1.0 | 2.0 | 0.00 | 0.00 | 0.00 | 81 | 1032.8 |
| 20260503042625 | 36 | 271 | 1.0 | 2.0 | 0.00 | 0.00 | 0.00 | 81 | 1032.5 |
| 20260503042121 | 36 | 305 | 1.0 | 1.0 | 0.00 | 0.00 | 0.00 | 81 | 1032.9 |